User: anonymous   Login
Location: Eurasberg
(48.3353°N, 11.0839°E)
Time: 08:12:43
(UTC+00:00)
Language:

SL-12 R/B(2) - Orbit

View from above orbital plane
View from above orbital plane
View from above satellite
View from above satellite

Ground track
Ground track

The orbit is defined by the following mean orbital elements,

1 27473U          26064.93028529 +.00000000 +00000-0 -35276-4 0 00000
2 27473  63.4168  80.1645 0626243 348.0656  52.1322 12.01428913    08
Epoch (UTC): 05 March 2026 22:19:36
Eccentricity: 0.0626243
inclination: 63.4168°
perigee height: 1170 km
apogee height: 2179 km
right ascension of ascending node: 80.1645°
argument of perigee: 348.0656°
revolutions per day: 12.01428913
mean anomaly at epoch: 52.1322°

The dashed part of the orbit path shows where the satellite is in the earth's shadow,  

DLR